Temp
19 18 18 19 18 17 16 17 17 17 17 18 18 18 18 19 19 18 18 16 17 17
19 18 18 18 17 16 16 16 17 17 18 18 18 18 19 16 17 18 15 15 15 15
20 19 18 18 18 17 17 17 17 16 16 17 17 17 17 15 16 17 15 15 14 14
19 19 18 18 18 18 17 17 17 16 14 13 15 15 16 16 16 15 15 15 15 15
19 19 19 19 19 18 17 14 14 13 13 14 14 15 15 16 15 14 13 13 13 13
20 17 20 19 18 18 17 16 13 12 12 12 12 13 13 13 12 12 13 13 13 13
18 19 19 19 18 17 17 14 13 12 12 12 12 11 11 11 12 13 12 12 13 13
20 19 19 19 18 18 17 14 12 12 12 12 12 13 11 11 11 12 12 12 12 12
19 20 19 19 18 17 16 14 12 12 12 12 13 13 12 12 11 11 11 11 11 11
19 19 19 18 18 16 14 12 12 12 12 12 12 12 12 11 12 11 11 11 11 12
19 18 18 17 17 16 13 12 11 11 11 12 12 11 11 11 10 11 10 10 10 10
18 18 17 16 16 15 13 11 11 11 11 11 11 11 12 12 11 12 10 10 10 10
17 16 16 15 15 13 14 12 12 11 11 11 12 12 12 11 11 12 11 11 10 10
17 16 15 15 15 15 13 12 12 11 11 12 12 11 12 12 12 11 11 12 12 11
Height
1550 1551 1552 1551 1551 1552 1552 1551 1549 1548 1547 1547 1547 1547 1547 1546 1545 1545 1544 1544 1545 1546
1548 1550 1550 1549 1549 1550 1550 1549 1547 1546 1545 1544 1544 1543 1543 1543 1542 1541 1542 1543 1544 1544
1546 1547 1547 1547 1546 1547 1547 1547 1546 1544 1544 1543 1542 1541 1540 1540 1540 1539 1540 1541 1540 1540
1544 1544 1545 1545 1544 1544 1544 1545 1544 1543 1542 1542 1540 1540 1539 1538 1538 1537 1537 1537 1536 1536
1543 1543 1544 1544 1544 1544 1544 1544 1544 1544 1543 1541 1540 1539 1538 1536 1535 1535 1536 1536 1535 1535
1544 1544 1544 1543 1543 1543 1543 1543 1544 1545 1544 1544 1541 1540 1538 1536 1536 1535 1534 1535 1534 1533
1542 1543 1543 1542 1542 1542 1542 1543 1542 1544 1543 1543 1541 1541 1540 1539 1536 1534 1534 1532 1532 1532
1540 1540 1540 1540 1541 1540 1540 1541 1542 1541 1543 1542 1541 1542 1540 1539 1538 1535 1533 1532 1529 1529
1537 1537 1538 1539 1539 1538 1539 1539 1540 1540 1541 1541 1541 1539 1539 1538 1538 1535 1533 1530 1529 1526
1535 1538 1539 1538 1537 1537 1538 1539 1538 1539 1539 1537 1539 1537 1537 1536 1537 1535 1531 1530 1526 1526
1534 1535 1536 1537 1536 1535 1536 1536 1536 1536 1535 1535 1534 1533 1534 1534 1533 1533 1529 1526 1525 1522
1531 1532 1534 1534 1534 1534 1533 1533 1533 1533 1531 1533 1533 1531 1531 1530 1531 1530 1528 1523 1522 1520
1530 1531 1533 1533 1532 1532 1531 1530 1531 1529 1528 1529 1528 1527 1527 1528 1527 1526 1525 1523 1521 1516
1526 1529 1528 1529 1529 1528 1528 1528 1527 1526 1526 1526 1524 1525 1525 1523 1522 1523 1521 1521 1521 1517
Wind_Speed
6 6 5 5 5 2 2 7 9 9 10 10 11 11 13 14 15 13 12 13 14 15
5 5 5 5 4 1 5 7 10 9 9 8 7 8 8 6 8 11 8 8 9 10
5 4 4 4 4 5 8 7 7 6 5 5 5 5 4 5 7 7 5 5 9 8
5 2 1 2 5 5 6 6 5 4 2 3 3 4 4 5 7 6 7 7 7 7
5 2 1 4 4 5 5 3 2 2 3 2 3 5 6 5 5 4 3 3 3 3
5 3 2 3 4 4 4 3 1 2 2 3 4 6 4 2 1 1 1 2 2 4
6 3 2 3 3 4 4 2 2 3 4 4 3 4 3 2 1 0 2 1 2 4
9 3 3 4 5 5 4 3 4 3 4 3 2 3 2 3 4 4 3 3 3 6
7 3 5 5 5 5 4 3 3 2 5 5 2 10 4 2 5 5 5 4 5 8
6 6 6 6 5 5 4 4 4 5 5 5 7 8 6 6 5 5 6 7 4 3
8 7 7 7 7 7 5 5 5 7 6 6 7 12 9 8 5 7 8 8 6 4
9 8 8 8 8 7 7 6 6 6 5 7 8 13 9 8 6 8 9 8 6 5
6 7 9 10 9 8 7 6 6 5 5 7 8 13 11 10 6 7 9 8 7 9
9 11 9 9 9 9 8 8 7 6 7 8 7 9 9 9 7 8 7 6 6 7
Wind_Direction
216 240 247 268 295 270 237 285 287 289 290 296 264 272 272 279 277 294 280 282 273 273
210 201 210 281 307 309 300 292 282 291 294 288 280 277 286 291 292 281 289 279 283 274
199 231 262 270 273 282 298 295 303 310 305 301 302 303 306 301 288 278 279 284 278 277
173 199 256 297 312 311 305 302 294 279 265 303 318 316 306 293 286 281 275 270 277 275
171 124 346 329 319 305 300 297 275 261 253 255 286 305 302 289 265 270 289 288 296 300
167 124 333 334 318 311 303 292 271 251 245 274 305 313 316 316 291 215 223 295 285 264
160 209 256 331 333 321 316 275 236 227 240 270 319 325 340 341 330 241 270 251 263 304
200 215 313 332 334 331 320 281 255 249 257 274 305 278 302 336 335 335 329 292 254 266
203 243 280 317 318 319 305 284 266 261 261 270 229 266 284 305 309 322 325 310 302 291
209 252 280 291 306 309 289 262 270 258 261 245 241 266 290 299 290 308 314 315 306 300
221 246 270 293 300 291 272 266 268 272 251 248 250 274 288 306 293 298 310 316 306 296
224 247 273 285 288 277 267 255 262 272 259 257 256 273 279 285 278 284 306 306 296 287
243 262 276 283 280 271 275 266 268 260 268 264 261 275 275 280 281 286 299 310 298 307
248 273 262 270 277 283 274 250 267 256 265 272 284 275 283 284 286 284 294 294 293 281